TimeHST,TemperatureF,Dew PointF,Humidity,Sea Level PressureIn,VisibilityMPH,Wind Direction,Wind SpeedMPH,Gust SpeedMPH,PrecipitationIn,Events,Conditions,WindDirDegrees,DateUTC
12:03 AM,73.4,64.4,73,30.07,10.0,Variable,4.6,-,N/A,,Overcast,0,2013-06-22 10:03:00
12:53 AM,75.0,64.0,69,30.08,10.0,Variable,5.8,-,N/A,,Clear,0,2013-06-22 10:53:00
1:01 AM,75.2,64.4,69,30.06,10.0,ENE,8.1,-,N/A,,Scattered Clouds,70,2013-06-22 11:01:00
1:53 AM,75.0,64.0,69,30.06,10.0,ENE,6.9,-,N/A,,Mostly Cloudy,70,2013-06-22 11:53:00
2:53 AM,75.0,64.0,69,30.06,10.0,ENE,5.8,-,N/A,,Overcast,70,2013-06-22 12:53:00
3:53 AM,73.9,64.0,71,30.05,10.0,NE,4.6,-,N/A,,Mostly Cloudy,50,2013-06-22 13:53:00
4:53 AM,73.9,64.0,71,30.06,10.0,Variable,3.5,-,N/A,,Partly Cloudy,0,2013-06-22 14:53:00
5:53 AM,73.9,64.0,71,30.07,10.0,East,4.6,-,N/A,,Clear,80,2013-06-22 15:53:00
6:19 AM,73.4,62.6,69,30.05,10.0,Variable,5.8,-,N/A,,Partly Cloudy,0,2013-06-22 16:19:00
6:53 AM,75.9,64.0,67,30.08,10.0,ENE,6.9,-,N/A,,Clear,70,2013-06-22 16:53:00
7:08 AM,77.0,64.4,65,30.06,10.0,ENE,5.8,-,N/A,,Partly Cloudy,60,2013-06-22 17:08:00
7:53 AM,77.0,64.9,66,30.09,10.0,East,8.1,-,N/A,,Mostly Cloudy,80,2013-06-22 17:53:00
8:53 AM,81.0,64.0,56,30.09,10.0,East,11.5,20.7,N/A,,Partly Cloudy,80,2013-06-22 18:53:00
9:53 AM,81.0,64.0,56,30.10,10.0,East,5.8,18.4,0.01,,Overcast,80,2013-06-22 19:53:00
10:53 AM,84.0,64.0,51,30.10,10.0,East,9.2,20.7,N/A,,Scattered Clouds,90,2013-06-22 20:53:00
11:53 AM,82.0,64.0,54,30.10,10.0,ENE,10.4,20.7,N/A,,Mostly Cloudy,70,2013-06-22 21:53:00
12:53 PM,84.0,64.0,51,30.09,10.0,East,13.8,27.6,N/A,,Partly Cloudy,90,2013-06-22 22:53:00
1:53 PM,84.9,62.1,46,30.07,10.0,ENE,10.4,27.6,N/A,,Partly Cloudy,70,2013-06-22 23:53:00
2:53 PM,84.9,63.0,48,30.06,10.0,East,12.7,21.9,N/A,,Partly Cloudy,80,2013-06-23 00:53:00
3:53 PM,84.0,63.0,49,30.06,10.0,NE,8.1,23.0,N/A,,Partly Cloudy,50,2013-06-23 01:53:00
4:53 PM,82.0,64.0,54,30.06,10.0,ENE,9.2,-,N/A,,Mostly Cloudy,60,2013-06-23 02:53:00
5:53 PM,79.0,66.0,64,30.08,10.0,ENE,6.9,-,N/A,,Partly Cloudy,60,2013-06-23 03:53:00
6:53 PM,77.0,66.0,69,30.10,10.0,Variable,5.8,-,N/A,,Mostly Cloudy,0,2013-06-23 04:53:00
7:53 PM,75.0,66.9,76,30.12,10.0,Variable,4.6,-,N/A,,Clear,0,2013-06-23 05:53:00
8:53 PM,75.0,66.9,76,30.13,10.0,Variable,4.6,-,N/A,,Scattered Clouds,0,2013-06-23 06:53:00
9:06 PM,75.2,66.2,73,30.11,10.0,Variable,4.6,-,N/A,,Scattered Clouds,0,2013-06-23 07:06:00
9:53 PM,73.9,66.9,79,30.14,10.0,Variable,3.5,-,N/A,,Scattered Clouds,0,2013-06-23 07:53:00
10:53 PM,73.9,68.0,82,30.15,10.0,Calm,Calm,-,N/A,,Mostly Cloudy,0,2013-06-23 08:53:00
11:53 PM,75.0,66.9,76,30.15,10.0,Calm,Calm,-,N/A,,Overcast,0,2013-06-23 09:53:00